Domov               UVHVVR             MKGP            O straneh              
ZDRAVSTVENO VARSTVO RASTLIN
  MREŽA AGROMET. POSTAJ
 ► PROGNOSTIČNA OBVESTILA
AGROMETEOROLOŠKI PODATKI -
ARSO
OBVLADOVANJE TVEGANJ ZARADI
NEUGODNIH VREMENSKIH RAZMER
  ► NARAVNE NESREČE
  ► SUŠA/MOČA
  ► NAMAKANJE
  ► ŽLED (gozdarstvo)
KARTOGRAFSKI PRIKAZI
SPLETNE POVEZAVE
PROJEKTI IN PUBLIKACIJE

AGROMETEOROLOŠKA MREŽA: VREMENSKE POSTAJE IN FENOLOŠKA OPAZOVANJA

Pregled podatkov za lokacijo Vidonci, meteorološka postaja 42838

Pregled senzorjev na lokaciji

ID Ime Zadnja
vrednost
Datum
zadnje
spremembe
Tip
senzorja
2110 Omočenost lista (U) 0 U 19.10.2017 16:00 A730WET
2111 Temperatura 2 m ( °C) 18,1 °C 19.10.2017 16:00 50YA
2112 Relativna vlaga 2 m (% RH) 64,44 % RH 19.10.2017 16:00 50YA
2113 Padavine 0.2 mm (mm) 0 mm 19.10.2017 16:00 Rain-O-Matic

Pregled podatkov zadnjih 24 ur

Zap.
št.
Datum in čas Vidonci
Omočenost
lista
Padavine
0.2
mm
Relativna
vlaga
2
m
Temperatura
2
m
0 19.10.2017 15:00 0 0 64,44 18,1
1 19.10.2017 14:30 0 0 63,46 18,41
2 19.10.2017 14:00 0 0 62,4 18,7
3 19.10.2017 13:30 0 0 61,22 18,82
4 19.10.2017 13:00 0 0 61,22 18,98
5 19.10.2017 12:30 0 0 63,99 18,14
6 19.10.2017 12:00 0 0 66,6 17,46
7 19.10.2017 11:30 0 0 68,8 16,79
8 19.10.2017 11:00 0 0 71,54 15,99
9 19.10.2017 10:30 0 0 73,15 15,55
10 19.10.2017 10:00 0 0 80,39 14,04
11 19.10.2017 09:30 1 0 85,61 12,64
12 19.10.2017 09:00 10 0 89,64 11,63
13 19.10.2017 08:30 10 0 91,19 11,06
14 19.10.2017 08:00 10 0 91,55 10,66
15 19.10.2017 07:30 10 0 91,59 10,19
16 19.10.2017 07:00 10 0 91,44 10,08
17 19.10.2017 06:30 10 0 91,02 10,03
18 19.10.2017 06:00 10 0 89,85 10,41
19 19.10.2017 05:30 10 0 90,06 10,36
20 19.10.2017 05:00 10 0 90,91 8,47
21 19.10.2017 04:30 10 0 89,46 8,56
22 19.10.2017 04:00 10 0 89,61 8,75
23 19.10.2017 03:30 10 0 89,47 8,33
24 19.10.2017 03:00 10 0 88,16 8,39
25 19.10.2017 02:30 10 0 86,3 8,56
26 19.10.2017 02:00 10 0 84,83 8,63
27 19.10.2017 01:30 10 0 84,44 8,58
28 19.10.2017 01:00 10 0 83,04 8,89
29 19.10.2017 00:30 10 0 79,17 9,62
30 19.10.2017 00:00 10 0 79,64 9,58
31 18.10.2017 23:30 10 0 80,56 9,7
32 18.10.2017 23:00 9 0 78,71 10,23
33 18.10.2017 22:30 7 0 77,38 10,71
34 18.10.2017 22:00 4 0 77,52 10,79
35 18.10.2017 21:30 4 0 74,45 11,56
36 18.10.2017 21:00 3 0 73,41 11,9
37 18.10.2017 20:30 4 0 72,66 12,29
38 18.10.2017 20:00 2 0 72,93 12,57
39 18.10.2017 19:30 0 0 69,21 13,41
40 18.10.2017 19:00 0 0 62,88 14,93
41 18.10.2017 18:30 0 0 59,95 15,73
42 18.10.2017 18:00 0 0 55,71 16,46
43 18.10.2017 17:30 0 0 50,59 17,5
44 18.10.2017 17:00 0 0 40,39 18,67
45 18.10.2017 16:30 0 0 37,15 19,9
© 2011 Ministrstvo za kmetijstvo, gozdarstvo in prehrano. Vse pravice pridržane.